Topeka, KS

5:09 AM CDT on March 27, 2017 (GMT -0500)
Billard Municipal

Weather History for KTOP - September, 2013

Change the Weather History Date:

Tuesday, September 17, 2013

  Actual Average Record
Temperature  
Mean Temperature 70 °F 68 °F  
Max Temperature 77 °F 80 °F 103 °F (1953)
Min Temperature 62 °F 56 °F 39 °F (1981)
Degree Days  
Heating Degree Days 0 2  
Month to date heating degree days 3 16  
Since 1 July heating degree days 3 18  
Cooling Degree Days 5 5  
Month to date cooling degree days 194 120  
Year to date cooling degree days 1488 1348  
Growing Degree Days 18 (Base 50)    
Moisture  
Dew Point 63 °F    
Average Humidity 81    
Maximum Humidity 93    
Minimum Humidity 69    
Precipitation  
Precipitation 0.76 in 0.12 in 2.51 in (1978)
Month to date precipitation 2.55 2.07  
Year to date precipitation 27.02 28.64  
Snow  
Snow 0.00 in 0.00 in 0.00 in ()
Month to date snowfall 0.0 0.0  
Year to date snowfall 24.2 11.3  
Since 1 July snowfall 0.0 0.0  
Snow Depth 0.00 in    
Sea Level Pressure  
Sea Level Pressure 30.09 in    
Wind  
Wind Speed 10 mph (SE)    
Max Wind Speed 18 mph    
Max Gust Speed 23 mph    
Visibility 5 miles    
Events Rain , Thunderstorm    
T = Trace of Precipitation, MM = Missing Value Source: NWS Daily Summary

Daily Weather History Graph

Daily Weather History Graph

Search for Another Location

Airport or City:

Trip Planner

Search our weather history database for the weather conditions in past years. The results will help you decide how hot, cold, wet, or windy it might be!

Date:

Astronomy

Sep. 17, 2013 Rise Set
Actual Time 7:05 AM CDT 7:27 PM CDT
Civil Twilight 6:39 AM CDT 7:53 PM CDT
Nautical Twilight 6:07 AM CDT 8:25 PM CDT
Astronomical Twilight 5:35 AM CDT 8:57 PM CDT
Moon 6:14 PM CDT (9/17) 5:02 AM CDT (9/17)
Length of Visible Light 13h 14m
Length of Day
12h 21m
Waxing Gibbous, 96% of the Moon is Illuminated
Sep 17
Waxing Gibbous
Sep 19
Full
Sep 26
Last Quarter
Oct 4
New
Oct 11
First Quarter

Hourly Weather History & Observations

Time (CDT) Temp. Dew Point Humidity Pressure Visibility Wind Dir Wind Speed Gust Speed Precip Events Conditions
12:53 AM 62.1 °F 59.0 °F 90% 30.18 in 6.0 mi ESE 6.9 mph - N/A   Overcast
1:53 AM 62.1 °F 60.1 °F 93% 30.16 in 5.0 mi ESE 9.2 mph - N/A   Overcast
2:53 AM 63.0 °F 60.1 °F 90% 30.16 in 5.0 mi SE 6.9 mph - N/A   Overcast
3:53 AM 63.0 °F 60.1 °F 90% 30.14 in 4.0 mi SE 8.1 mph - 0.01 in   Overcast
4:22 AM 63.0 °F 61.0 °F 93% 30.13 in 2.0 mi ESE 6.9 mph - 0.05 in Rain Heavy Rain
4:40 AM 63.0 °F 61.0 °F 93% 30.13 in 3.0 mi ESE 8.1 mph - 0.08 in Rain Light Rain
4:53 AM 63.0 °F 61.0 °F 93% 30.12 in 3.0 mi ESE 5.8 mph - 0.08 in Rain Light Rain
5:09 AM 63.0 °F 61.0 °F 93% 30.12 in 2.0 mi East 4.6 mph - 0.03 in Rain Heavy Rain
5:27 AM 63.0 °F 61.0 °F 93% 30.12 in 3.0 mi East 3.5 mph - 0.09 in Rain Light Rain
5:53 AM 63.0 °F 61.0 °F 93% 30.11 in 4.0 mi ESE 5.8 mph - 0.09 in Rain Light Rain
6:53 AM 64.0 °F 61.0 °F 90% 30.13 in 2.5 mi SE 8.1 mph - 0.07 in Rain Heavy Rain
7:01 AM 63.0 °F 61.0 °F 93% 30.14 in 3.0 mi SSE 5.8 mph - 0.03 in Rain , Thunderstorm Light Rain
7:16 AM 64.0 °F 61.0 °F 90% 30.15 in 3.0 mi SSE 3.5 mph - 0.04 in Rain Light Rain
7:40 AM 63.0 °F 61.0 °F 93% 30.15 in 2.5 mi ESE 4.6 mph - 0.10 in Rain Heavy Rain
7:53 AM 63.0 °F 61.0 °F 93% 30.14 in 3.0 mi ESE 6.9 mph - 0.15 in Rain Rain
8:02 AM 63.0 °F 62.1 °F 97% 30.15 in 3.0 mi ESE 3.5 mph - 0.03 in Rain , Thunderstorm Rain
8:11 AM 63.0 °F 61.0 °F 93% 30.14 in 2.5 mi East 5.8 mph - 0.07 in Rain Heavy Rain
8:40 AM 64.0 °F 62.1 °F 93% 30.14 in 3.0 mi ESE 4.6 mph - 0.15 in Rain Light Rain
8:51 AM 64.4 °F 62.6 °F 94% 30.14 in 2.5 mi SSE 5.8 mph - 0.16 in Rain Rain
8:53 AM 64.0 °F 62.1 °F 93% 30.13 in 2.5 mi SE 5.8 mph - 0.17 in Rain Rain
9:13 AM 64.0 °F 62.1 °F 93% 30.15 in 2.5 mi South 4.6 mph - 0.04 in Rain , Thunderstorm Rain
9:21 AM 64.0 °F 62.1 °F 93% 30.15 in 1.8 mi SSE 6.9 mph - 0.08 in Rain , Thunderstorm Heavy Thunderstorms and Rain
9:31 AM 64.0 °F 62.1 °F 93% 30.14 in 1.8 mi SE 6.9 mph - 0.14 in Rain , Thunderstorm Thunderstorms and Rain
9:33 AM 64.0 °F 62.1 °F 93% 30.14 in 2.0 mi SE 5.8 mph - 0.14 in Rain , Thunderstorm Rain
9:49 AM 64.4 °F 62.6 °F 94% 30.13 in 2.5 mi SE 6.9 mph - 0.18 in Rain , Thunderstorm Thunderstorms and Rain
9:53 AM 64.0 °F 62.1 °F 93% 30.12 in 4.0 mi SSE 6.9 mph - 0.18 in Rain , Thunderstorm Light Thunderstorms and Rain
10:06 AM 64.9 °F 63.0 °F 93% 30.12 in 6.0 mi SE 8.1 mph - 0.01 in Rain Light Rain
10:14 AM 66.0 °F 63.0 °F 90% 30.12 in 8.0 mi SE 6.9 mph - 0.01 in Rain Light Rain
10:53 AM 70.0 °F 66.0 °F 87% 30.10 in 10.0 mi SSE 13.8 mph - 0.01 in   Mostly Cloudy
11:53 AM 73.0 °F 66.0 °F 79% 30.09 in 10.0 mi South 13.8 mph 19.6 mph N/A   Scattered Clouds
12:53 PM 75.9 °F 66.0 °F 71% 30.07 in 10.0 mi South 16.1 mph - N/A   Clear
1:25 PM 75.0 °F 66.0 °F 73% 30.07 in 10.0 mi South 13.8 mph 21.9 mph N/A   Mostly Cloudy
1:53 PM 75.9 °F 66.0 °F 71% 30.04 in 10.0 mi South 15.0 mph - N/A   Mostly Cloudy
2:53 PM 75.0 °F 66.0 °F 73% 30.03 in 10.0 mi SSE 13.8 mph 21.9 mph N/A   Overcast
3:53 PM 73.9 °F 66.0 °F 76% 30.00 in 9.0 mi SSE 10.4 mph - N/A   Overcast
4:53 PM 75.9 °F 66.9 °F 74% 29.97 in 9.0 mi SSE 12.7 mph - N/A   Mostly Cloudy
5:00 PM 77.0 °F 66.9 °F 71% 29.98 in 9.0 mi SSE 10.4 mph - N/A   Scattered Clouds
5:53 PM 77.0 °F 66.9 °F 71% 29.95 in 10.0 mi SSE 13.8 mph - N/A   Clear
6:53 PM 75.0 °F 68.0 °F 79% 29.94 in 8.0 mi ESE 10.4 mph - N/A   Clear
7:53 PM 72.0 °F 66.9 °F 84% 29.94 in 8.0 mi SE 10.4 mph - N/A   Clear
8:53 PM 71.1 °F 66.9 °F 87% 29.96 in 7.0 mi SE 10.4 mph - N/A   Clear
9:53 PM 71.1 °F 66.0 °F 84% 29.97 in 7.0 mi SE 10.4 mph - N/A   Clear
10:53 PM 70.0 °F 66.0 °F 87% 29.97 in 6.0 mi SE 8.1 mph - N/A   Clear
11:53 PM 69.1 °F 64.9 °F 87% 29.96 in 5.0 mi SE 5.8 mph - N/A   Clear